Location: Antioch Baptist Church
(32.6696°N, 85.7327°W)
Time: 11:09:20
(UTC+00:00)

Cosmos 2151 - Pass Details

Date: 14 July 2020
Orbit: 580 x 602 km, 82.5° (Epoch: 08 August)

Event Time Altitude Azimuth Distance (km) Brightness Sun altitude
Exits shadow 03:43:44 40° 6° (N) 886 4.1 -28.0°
Drops below altitude 10° 03:46:29 10° 6° (N) 1,928 6.2 -28.3°
Sets 03:48:42 0° 7° (N) 2,829 7.2 -28.6°
